| time (UTC) | temp F | wind direction | speed knots | gust knots | rain 1hr in | rain 24hr in | rain mn in | humidity % | barometer mb |
| 20260502233025 | 58 | 144 | 0.0 | 1.7 | 0.00 | 0.00 | 0.00 | 56 | |
| 20260502232026 | 58 | 197 | 1.7 | 2.6 | 0.00 | 0.00 | 0.00 | 55 | |
| 20260502231025 | 58 | 103 | 0.9 | 3.5 | 0.00 | 0.00 | 0.00 | 55 | |
| 20260502230026 | 58 | 131 | 1.7 | 3.5 | 0.00 | 0.00 | 0.00 | 56 | |
| 20260502225026 | 58 | 221 | 1.7 | 3.5 | 0.00 | 0.00 | 0.00 | 58 | |
| 20260502224045 | 57 | 109 | 0.0 | 1.7 | 0.00 | 0.00 | 0.00 | 60 | |
| 20260502223026 | 57 | 162 | 0.9 | 1.7 | 0.00 | 0.00 | 0.00 | 61 | |
| 20260502222025 | 57 | 223 | 2.6 | 6.1 | 0.00 | 0.00 | 0.00 | 62 | |
| 20260502221026 | 58 | 189 | 1.7 | 4.3 | 0.00 | 0.00 | 0.00 | 63 | |
| 20260502220026 | 58 | 205 | 2.6 | 3.5 | 0.00 | 0.00 | 0.00 | 63 | |
| 20260502215026 | 58 | 131 | 0.9 | 2.6 | 0.00 | 0.00 | 0.00 | 65 | |
| 20260502214025 | 58 | 114 | 0.0 | 1.7 | 0.00 | 0.00 | 0.00 | 68 | |
| 20260502213026 | 59 | 178 | 0.9 | 2.6 | 0.00 | 0.00 | 0.00 | 67 | |
| 20260502212046 | 59 | 201 | 0.0 | 0.9 | 0.00 | 0.00 | 0.00 | 70 | |
| 20260502211026 | 60 | 0.0 | 0.0 | 0.00 | 0.00 | 0.00 | 68 | ||
| 20260502210025 | 59 | 152 | 0.9 | 2.6 | 0.00 | 0.00 | 0.00 | 70 | |
| 20260502205026 | 59 | 90 | 0.0 | 1.7 | 0.00 | 0.00 | 0.00 | 68 | |
| 20260502204025 | 59 | 135 | 0.9 | 2.6 | 0.00 | 0.00 | 0.00 | 69 | |
| 20260502203026 | 59 | 174 | 0.0 | 1.7 | 0.00 | 0.00 | 0.00 | 67 | |
| 20260502202026 | 60 | 120 | 0.9 | 4.3 | 0.00 | 0.00 | 0.00 | 67 | |
| 20260502201045 | 59 | 162 | 0.9 | 2.6 | 0.00 | 0.00 | 0.00 | 69 | |
| 20260502200046 | 59 | 157 | 0.9 | 2.6 | 0.00 | 0.00 | 0.00 | 69 | |
| 20260502195026 | 59 | 271 | 0.0 | 1.7 | 0.00 | 0.00 | 0.00 | 69 | |
| 20260502194025 | 59 | 163 | 0.9 | 1.7 | 0.00 | 0.00 | 0.00 | 69 | |
| 20260502193046 | 59 | 126 | 0.9 | 1.7 | 0.00 | 0.00 | 0.00 | 70 | |
| 20260502192025 | 59 | 163 | 0.9 | 2.6 | 0.00 | 0.00 | 0.00 | 70 | |
| 20260502191046 | 58 | 138 | 0.0 | 1.7 | 0.00 | 0.00 | 0.00 | 70 | |
| 20260502190026 | 59 | 131 | 0.9 | 1.7 | 0.00 | 0.00 | 0.00 | 70 | |
| 20260502185025 | 59 | 139 | 0.0 | 0.9 | 0.00 | 0.00 | 0.00 | 71 | |
| 20260502184026 | 59 | 144 | 0.9 | 1.7 | 0.00 | 0.00 | 0.00 | 72 | |
| 20260502183046 | 58 | 126 | 0.9 | 2.6 | 0.00 | 0.00 | 0.00 | 74 | |
| 20260502182026 | 57 | 227 | 0.9 | 1.7 | 0.00 | 0.00 | 0.00 | 74 | |
| 20260502181026 | 57 | 145 | 0.9 | 1.7 | 0.00 | 0.00 | 0.00 | 75 | |
| 20260502163026 | 55 | 86 | 1.7 | 4.3 | 0.00 | 0.00 | 0.00 | 80 | |
| 20260502162026 | 55 | 177 | 0.9 | 1.7 | 0.00 | 0.00 | 0.00 | 81 | |
| 20260502161046 | 55 | 166 | 0.9 | 1.7 | 0.00 | 0.00 | 0.00 | 80 | |
| 20260502152026 | 55 | 166 | 1.7 | 4.3 | 0.00 | 0.00 | 0.00 | 81 | |
| 20260502151026 | 55 | 168 | 0.9 | 1.7 | 0.00 | 0.00 | 0.00 | 82 | |
| 20260502123026 | 53 | 268 | 2.6 | 4.3 | 0.00 | 0.00 | 0.00 | 77 | |
| 20260502122026 | 53 | 222 | 1.7 | 5.2 | 0.00 | 0.00 | 0.00 | 79 | |
| 20260502121026 | 53 | 143 | 1.7 | 3.5 | 0.00 | 0.00 | 0.00 | 79 | |
| 20260502115026 | 53 | 197 | 0.9 | 2.6 | 0.00 | 0.00 | 0.00 | 80 | |
| 20260502114026 | 53 | 133 | 0.9 | 3.5 | 0.00 | 0.00 | 0.00 | 79 | |
| 20260502113026 | 53 | 137 | 1.7 | 3.5 | 0.00 | 0.00 | 0.00 | 78 | |
| 20260502112026 | 53 | 197 | 2.6 | 4.3 | 0.00 | 0.00 | 0.00 | 78 | |
| 20260502111026 | 53 | 134 | 0.9 | 2.6 | 0.00 | 0.00 | 0.00 | 79 | |
| 20260502110026 | 54 | 249 | 2.6 | 5.2 | 0.00 | 0.00 | 0.00 | 77 | |
| 20260502105026 | 54 | 200 | 2.6 | 4.3 | 0.00 | 0.00 | 0.00 | 76 | |
| 20260502104026 | 54 | 269 | 2.6 | 5.2 | 0.00 | 0.00 | 0.00 | 75 | |
| 20260502103046 | 54 | 289 | 1.7 | 3.5 | 0.00 | 0.00 | 0.00 | 76 | |
| 20260502102026 | 54 | 270 | 2.6 | 5.2 | 0.00 | 0.00 | 0.00 | 77 | |
| 20260502101026 | 54 | 186 | 1.7 | 2.6 | 0.00 | 0.00 | 0.00 | 80 | |
| 20260502091026 | 53 | 0.0 | 0.0 | 0.00 | 0.00 | 0.00 | 84 | ||
| 20260502071027 | 53 | 220 | 0.9 | 1.7 | 0.00 | 0.00 | 0.00 | 86 | |
| 20260502070026 | 53 | 0.0 | 0.9 | 0.00 | 0.00 | 0.00 | 86 | ||
| 20260502065027 | 53 | 0.0 | 0.0 | 0.00 | 0.00 | 0.00 | 86 | ||
| 20260502064027 | 53 | 0.0 | 0.0 | 0.00 | 0.00 | 0.00 | 85 | ||
| 20260502063026 | 53 | 0.0 | 0.0 | 0.00 | 0.00 | 0.00 | 85 | ||
| 20260502062026 | 53 | 0.0 | 0.0 | 0.00 | 0.00 | 0.00 | 85 | ||
| 20260502061027 | 54 | 0.0 | 0.0 | 0.00 | 0.00 | 0.00 | 85 | ||
| 20260502060027 | 54 | 0.0 | 0.9 | 0.00 | 0.00 | 0.00 | 84 | ||
| 20260502055026 | 54 | 0.0 | 0.0 | 0.00 | 0.00 | 0.00 | 84 | ||
| 20260502054026 | 54 | 0.0 | 0.0 | 0.00 | 0.00 | 0.00 | 84 | ||
| 20260502053027 | 54 | 0.0 | 0.0 | 0.00 | 0.00 | 0.00 | 84 | ||
| 20260502052027 | 54 | 0.0 | 0.9 | 0.00 | 0.00 | 0.00 | 84 | ||
| 20260502051026 | 53 | 0.0 | 0.0 | 0.00 | 0.00 | 0.00 | 84 | ||
| 20260502050027 | 54 | 0.0 | 0.0 | 0.00 | 0.00 | 0.00 | 83 | ||
| 20260502045026 | 54 | 0.0 | 0.0 | 0.00 | 0.00 | 0.00 | 83 | ||
| 20260502044047 | 54 | 0.0 | 0.0 | 0.00 | 0.00 | 0.00 | 82 | ||
| 20260502043027 | 54 | 0.0 | 0.0 | 0.00 | 0.00 | 0.00 | 82 | ||
| 20260502042046 | 54 | 0.0 | 0.0 | 0.00 | 0.00 | 0.00 | 81 | ||
| 20260502041027 | 54 | 0.0 | 0.0 | 0.00 | 0.00 | 0.00 | 81 | ||
| 20260502040026 | 54 | 0.0 | 0.0 | 0.00 | 0.00 | 0.00 | 80 | ||
| 20260502035026 | 54 | 0.0 | 0.0 | 0.00 | 0.00 | 0.00 | 80 | ||
| 20260502034047 | 54 | 0.0 | 0.0 | 0.00 | 0.00 | 0.00 | 80 | ||
| 20260502033026 | 54 | 0.0 | 0.0 | 0.00 | 0.00 | 0.00 | 80 | ||
| 20260502032027 | 54 | 205 | 0.0 | 0.9 | 0.00 | 0.00 | 0.00 | 79 | |
| 20260502031027 | 54 | 0.0 | 0.0 | 0.00 | 0.00 | 0.00 | 79 | ||
| 20260502030027 | 54 | 0.0 | 0.9 | 0.00 | 0.00 | 0.00 | 78 | ||
| 20260502025027 | 55 | 0.0 | 0.0 | 0.00 | 0.00 | 0.00 | 78 | ||
| 20260502024027 | 55 | 0.0 | 0.9 | 0.00 | 0.00 | 0.00 | 77 | ||
| 20260502023027 | 55 | 0.0 | 0.0 | 0.00 | 0.00 | 0.00 | 77 | ||
| 20260502022027 | 55 | 0.0 | 0.0 | 0.00 | 0.00 | 0.00 | 77 | ||
| 20260502021027 | 55 | 0.0 | 0.0 | 0.00 | 0.00 | 0.00 | 77 | ||
| 20260502020027 | 55 | 161 | 0.0 | 1.7 | 0.00 | 0.00 | 0.00 | 77 | |
| 20260502015027 | 55 | 110 | 0.0 | 0.9 | 0.00 | 0.00 | 0.00 | 77 | |
| 20260502014027 | 55 | 0.0 | 0.0 | 0.00 | 0.00 | 0.00 | 77 | ||
| 20260502013047 | 55 | 101 | 0.0 | 0.9 | 0.00 | 0.00 | 0.00 | 77 | |
| 20260502012027 | 54 | 165 | 0.9 | 1.7 | 0.00 | 0.00 | 0.00 | 78 | |
| 20260502011027 | 54 | 0.0 | 0.9 | 0.00 | 0.00 | 0.00 | 78 | ||
| 20260502010027 | 54 | 139 | 0.0 | 0.9 | 0.00 | 0.00 | 0.00 | 77 | |
| 20260502005047 | 54 | 0.0 | 0.0 | 0.00 | 0.00 | 0.00 | 76 | ||
| 20260502004027 | 54 | 0.0 | 0.0 | 0.00 | 0.00 | 0.00 | 74 | ||
| 20260502003027 | 55 | 0.0 | 0.0 | 0.00 | 0.00 | 0.00 | 73 | ||
| 20260502002027 | 55 | 188 | 0.0 | 1.7 | 0.00 | 0.00 | 0.00 | 72 | |
| 20260502001027 | 56 | 85 | 0.9 | 1.7 | 0.00 | 0.00 | 0.00 | 70 | |
| 20260502000047 | 56 | 136 | 0.9 | 1.7 | 0.00 | 0.00 | 0.00 | 69 | |
| 20260501235047 | 57 | 0.0 | 0.0 | 0.00 | 0.00 | 0.00 | 68 | ||
| 20260501234047 | 57 | 163 | 0.0 | 1.7 | 0.00 | 0.00 | 0.00 | 68 |